Location: ????????
(48.4751°N, 37.6926°E)
Time: 03:16:11
(UTC+00:00)

DMSP B5D1-3 - Pass Details

Date: 20 January 2021
Orbit: 767 x 780 km, 98.5° (Epoch: 24 February)

Event Time Altitude Azimuth Distance (km) Brightness Sun altitude
Exits shadow 16:21:07 25° 24° (NNE) 1,524 5.8 -21.5°
Maximum altitude 16:24:08 70° 103° (ESE) 820 4.4 -22.0°
Drops below altitude 10° 16:29:12 10° 187° (S) 2,304 7.1 -22.8°
Sets 16:31:30 0° 190° (S) 3,228 7.9 -23.2°
